Location: Asheville, NC
(35.6000°N, 82.5500°W)
Time: 23:03:49
(UTC-05:00)

Hubble Space Telescope - Visible Passes

Search period start: 24 February 2018 00:00
Search period end: 06 March 2018 00:00
Orbit: 537 x 541 km, 28.5° (Epoch: 24 February)

Date Brightness Start Highest point End Pass type
(mag) Time Alt. Az. Time Alt. Az. Time Alt. Az.
24 Feb 2.4 05:03:15 26° SSE 05:03:15 26° SSE 05:05:56 10° ESE visible
24 Feb 2.3 06:39:39 10° WSW 06:43:07 26° S 06:46:34 10° SE visible
25 Feb 2.7 04:53:32 23° SE 04:53:32 23° SE 04:55:38 10° ESE visible
25 Feb 2.4 06:29:25 10° WSW 06:32:45 24° SSW 06:36:06 10° SE visible
26 Feb 3.1 04:43:51 19° SE 04:43:51 19° SE 04:45:17 10° ESE visible
26 Feb 2.5 06:19:15 10° WSW 06:22:24 21° SSW 06:25:33 10° SE visible
27 Feb 3.5 04:34:10 14° SE 04:34:10 14° SE 04:34:56 10° ESE visible
27 Feb 2.6 06:09:32 12° WSW 06:12:02 19° SSW 06:14:56 10° SSE visible
28 Feb 3.8 04:24:32 10° SE 04:24:32 10° SE 04:24:32 10° SE visible
28 Feb 2.8 05:59:54 13° SW 06:01:40 16° SSW 06:04:13 10° SSE visible
01 Mar 2.9 05:50:18 12° SW 05:51:17 13° SSW 05:53:17 10° S visible
02 Mar 3.1 05:40:46 11° SSW 05:40:53 11° SSW 05:41:54 10° S visible
